Location: Lone Wolf Observatory
(41.0360°N, 89.2260°W)
Time: 16:47:25
(UTC-06:00)

Amateur Radio Satellites - All Passes

Search period start: 27 February 2017 16:17
Search period end: 28 February 2017 16:17
Location: Lone Wolf Observatory, 41.0360°N, 89.2260°W

Satellite Date Start Highest point End Downlink Frequencies (MHz)
Time Altitude Azimuth
CUBESAT XI-V 27 Feb 16:21:45 16:26:06 41° 98° (E) 16:30:26 437.345
NO-84 27 Feb 16:29:20 16:32:27 54° 322° (NW) 16:35:53 435.350 FM
KAITUO 1B 27 Feb 16:34:01 16:36:43 19° 68° (ENE) 16:39:26 145.475/437.950
XW-2F 27 Feb 16:42:19 16:45:37 28° 70° (ENE) 16:48:55 145.980 - 146.000
CUTE-I 27 Feb 16:46:56 16:51:52 39° 68° (ENE) 16:56:49 437.470
XW-2D 27 Feb 16:48:17 16:51:47 34° 72° (ENE) 16:55:19 145.860 - 145.880
XW-2B 27 Feb 16:53:19 16:56:53 38° 73° (ENE) 17:00:30 145.730 - 145.750
MOZHAYETS 4 27 Feb 16:54:06 16:56:56 16° 296° (WNW) 16:59:44
XW-2C 27 Feb 17:01:54 17:05:37 50° 74° (ENE) 17:09:23 145.795 - 145.815
NUDT-PHONESAT 27 Feb 17:04:48 17:08:23 43° 73° (ENE) 17:11:59 437.300
KKS-1 27 Feb 17:05:22 17:09:36 42° 289° (WNW) 17:13:49 437.445
M-CUBED/EXP-1 PRIME 27 Feb 17:08:22 17:11:58 35° 104° (ESE) 17:15:49 437.505
LilacSat-2 27 Feb 17:21:20 17:25:12 88° 257° (WSW) 17:29:07 437.200
PCSat 27 Feb 17:21:46 17:25:17 17° 318° (NW) 17:28:48 145.827
HO-68 27 Feb 17:23:22 17:29:10 27° 60° (ENE) 17:34:57 435.675
STARS 27 Feb 17:32:13 17:36:29 48° 288° (WNW) 17:40:45 437.465
DOVE 4 27 Feb 17:35:34 17:39:37 58° 259° (W) 17:43:47 437.250
XW-2A 27 Feb 17:38:36 17:41:01 18° 69° (ENE) 17:43:27 145.665 - 145.685
CUBEBUG 2 27 Feb 17:54:16 17:55:55 12° 61° (ENE) 17:57:35 437.445
CUBESAT XI-V 27 Feb 17:59:51 18:03:10 20° 294° (WNW) 18:06:29 437.345
RS-15 27 Feb 18:00:12 18:12:04 63° 310° (NW) 18:24:24 29.354- 29.394
SEEDS 27 Feb 18:00:23 18:03:16 18° 66° (ENE) 18:06:09 437.485
KAITUO 1B 27 Feb 18:07:10 18:10:31 29° 263° (W) 18:13:54 145.475/437.950
NO-84 27 Feb 18:09:04 18:10:52 13° 343° (NNW) 18:12:44 435.350 FM
XW-2F 27 Feb 18:16:53 18:19:45 20° 266° (W) 18:22:38 145.980 - 146.000
XW-2D 27 Feb 18:23:39 18:26:06 16° 268° (W) 18:28:33 145.860 - 145.880
UWE-3 27 Feb 18:25:00 18:27:42 16° 64° (ENE) 18:30:27 435.000/436.395/437.385
CUTE-I 27 Feb 18:27:33 18:31:59 26° 265° (W) 18:36:28 437.470
XW-2B 27 Feb 18:29:04 18:31:14 15° 268° (W) 18:33:26 145.730 - 145.750
XW-2C 27 Feb 18:38:53 18:40:06 11° 270° (W) 18:41:20 145.795 - 145.815
ZACube-1 27 Feb 18:40:36 18:42:52 14° 63° (ENE) 18:45:10 437.345
NUDT-PHONESAT 27 Feb 18:40:53 18:42:32 12° 269° (W) 18:44:11 437.300
CUTE 1.7 + AOD 2 27 Feb 18:42:01 18:46:18 80° 75° (ENE) 18:50:34 437.475
M-CUBED/EXP-1 PRIME 27 Feb 18:43:28 18:46:15 19° 297° (WNW) 18:49:09 437.505
HO-68 27 Feb 19:09:19 19:16:23 61° 258° (WSW) 19:23:30 435.675
XW-2A 27 Feb 19:10:51 19:13:38 23° 264° (W) 19:16:27 145.665 - 145.685
AAUSAT CUBESAT 2 27 Feb 19:15:51 19:19:56 61° 75° (ENE) 19:24:02 437.432
AO-73 27 Feb 19:25:21 19:29:25 35° 70° (ENE) 19:33:35 145.935
STRAND 1 27 Feb 19:26:18 19:31:29 82° 104° (ESE) 19:36:37 437.568
CUBEBUG 2 27 Feb 19:27:22 19:31:50 75° 258° (WSW) 19:36:28 437.445
Oscar 11 27 Feb 19:28:57 19:32:51 33° 71° (ENE) 19:36:46 .
SEEDS 27 Feb 19:34:42 19:38:39 39° 262° (W) 19:42:38 437.485
UWE-3 27 Feb 19:59:17 20:03:39 54° 261° (W) 20:08:11 435.000/436.395/437.385
YUBILEINY 27 Feb 20:09:55 20:17:49 37° 71° (ENE) 20:25:38 435.215
ZACube-1 27 Feb 20:14:09 20:18:35 63° 260° (W) 20:23:07 437.345
RS-15 27 Feb 20:17:57 20:27:49 27° 340° (NNW) 20:37:48 29.354- 29.394
DELFI C3 27 Feb 20:25:05 20:28:48 41° 73° (ENE) 20:32:31 145.870
AAUSAT CUBESAT 2 27 Feb 20:54:48 20:55:46 11° 270° (W) 20:56:43 437.432
FO-29 27 Feb 20:57:08 20:59:16 11° 82° (E) 21:01:21 435.910
AO-73 27 Feb 21:02:16 21:05:43 22° 267° (W) 21:09:15 145.935
Oscar 11 27 Feb 21:05:40 21:09:01 22° 266° (W) 21:12:24 .
STRAND 1 27 Feb 21:07:33 21:09:57 13° 301° (WNW) 21:12:20 437.568
PRISM 27 Feb 21:10:22 21:14:17 43° 99° (E) 21:18:11 437.425
NO-84 27 Feb 21:25:56 21:28:54 20° 26° (NNE) 21:32:02 435.350 FM
SO-50 27 Feb 21:27:57 21:32:38 83° 122° (ESE) 21:37:17 436.795
LO-87 27 Feb 21:52:42 21:56:07 52° 75° (ENE) 21:59:35 145.935 - 145.965
ESTCUBE 1 27 Feb 21:52:42 21:56:37 30° 69° (ENE) 22:00:31 437.505/2401.250
DELFI C3 27 Feb 22:01:36 22:03:47 14° 268° (W) 22:05:57 145.870
O/OREOS (USA 219) 27 Feb 22:05:31 22:10:00 88° 113° (ESE) 22:14:32 437.305
YUBILEINY 27 Feb 22:06:32 22:14:47 49° 271° (W) 22:23:00 435.215
VELOX 1 27 Feb 22:07:43 22:10:07 15° 63° (ENE) 22:12:30 145.980
TIGRISAT 27 Feb 22:09:54 22:14:38 80° 101° (E) 22:19:16 435.000
UNISAT 6 27 Feb 22:10:28 22:15:12 87° 103° (ESE) 22:19:51 437.425
RS-15 27 Feb 22:36:29 22:46:09 25° 16° (NNE) 22:55:39 29.354- 29.394
EO-79 27 Feb 22:37:08 22:39:20 14° 91° (E) 22:41:31 145.935-145.965
FO-29 27 Feb 22:38:08 22:45:44 72° 102° (ESE) 22:52:28 435.910
PCSat 27 Feb 22:42:17 22:44:43 13° 38° (NE) 22:47:07 145.827
AIST 2D 27 Feb 22:44:26 22:47:26 25° 95° (E) 22:50:25 435.315
PRISM 27 Feb 22:46:46 22:49:13 16° 295° (WNW) 22:51:40 437.425
NANOSAT C BR1 27 Feb 22:51:39 22:54:39 18° 93° (E) 22:57:38 145.865
POLYITAN 1 27 Feb 22:54:36 22:57:57 22° 94° (E) 23:01:16 437.675
QB50P2 27 Feb 22:57:32 23:01:06 25° 95° (E) 23:04:39 145.880/145.840
NO-84 27 Feb 23:02:57 23:07:02 89° 223° (SW) 23:11:22 435.350 FM
SO-50 27 Feb 23:10:53 23:13:42 16° 320° (NW) 23:16:29 436.795
DX 1 27 Feb 23:24:09 23:28:12 41° 71° (ENE) 23:32:16 434.975-435.025
SPROUT 27 Feb 23:28:25 23:32:40 84° 80° (E) 23:36:58 437.525
ESTCUBE 1 27 Feb 23:29:37 23:33:23 26° 265° (W) 23:37:09 437.505/2401.250
UKube-1 27 Feb 23:30:40 23:34:34 34° 70° (ENE) 23:38:28 .
VELOX 1 27 Feb 23:41:49 23:46:06 55° 259° (W) 23:50:25 145.980
50 SAT 27 Feb 23:42:22 23:45:51 71° 258° (WSW) 23:49:20 437.505
O/OREOS (USA 219) 27 Feb 23:48:51 23:50:05 11° 310° (NW) 23:51:20 437.305
TIGRISAT 27 Feb 23:48:59 23:50:36 12° 299° (WNW) 23:52:13 435.000
UNISAT 6 27 Feb 23:50:05 23:51:09 11° 300° (WNW) 23:52:13 437.425
DUCHIFAT 1 27 Feb 23:56:54 00:01:11 89° 285° (WNW) 00:05:27 145.980
EO-79 28 Feb 00:11:13 00:15:23 51° 287° (WNW) 00:19:31 145.935-145.965
AIST 2D 28 Feb 00:17:59 00:20:30 19° 291° (WNW) 00:23:01 435.315
PCSat 28 Feb 00:23:45 00:29:11 66° 59° (ENE) 00:34:34 145.827
FO-29 28 Feb 00:24:09 00:29:54 24° 302° (WNW) 00:35:17 435.910
NANOSAT C BR1 28 Feb 00:26:32 00:30:29 37° 289° (WNW) 00:34:25 145.865
POLYITAN 1 28 Feb 00:29:56 00:33:47 32° 290° (WNW) 00:37:34 437.675
QB50P2 28 Feb 00:33:11 00:36:50 28° 291° (WNW) 00:40:28 145.880/145.840
BUGSAT 1 28 Feb 00:42:14 00:46:30 80° 285° (WNW) 00:50:45 437.445
ITUPSAT 1 28 Feb 00:42:16 00:45:12 16° 62° (ENE) 00:48:08 437.325
NO-84 28 Feb 00:42:26 00:44:17 13° 237° (WSW) 00:46:10 435.350 FM
Gurwin Techsat 1B 28 Feb 00:44:27 00:47:43 16° 91° (E) 00:50:58 435.225
BEESAT 28 Feb 00:46:33 00:49:45 18° 63° (ENE) 00:52:59 436.000
RS-15 28 Feb 00:50:18 01:02:24 55° 47° (NE) 01:14:00 29.354- 29.394
DX 1 28 Feb 01:01:41 01:04:33 17° 267° (W) 01:07:26 434.975-435.025
UKube-1 28 Feb 01:07:27 01:10:40 20° 266° (W) 01:13:53 .
Oscar 19 28 Feb 01:14:18 01:19:21 56° 101° (E) 01:24:22 437.125/150
AO-7 28 Feb 01:44:39 01:46:27 11° 86° (E) 01:48:15 .
ITAMSAT 1 28 Feb 01:56:30 01:58:53 13° 90° (E) 02:01:16 435.822/435.867
PCSat 28 Feb 02:08:36 02:11:59 17° 256° (WSW) 02:15:21 145.827
MOZHAYETS 4 28 Feb 02:17:05 02:21:33 49° 72° (ENE) 02:26:03
ITUPSAT 1 28 Feb 02:17:48 02:22:32 59° 259° (W) 02:27:19 437.325
BEESAT 28 Feb 02:22:29 02:27:08 51° 260° (W) 02:31:49 436.000
Gurwin Techsat 1B 28 Feb 02:22:49 02:28:05 62° 287° (WNW) 02:33:19 435.225
KKS-1 28 Feb 02:28:07 02:31:00 17° 64° (ENE) 02:33:53 437.445
STARS 28 Feb 02:54:17 02:56:41 15° 63° (ENE) 02:59:04 437.465
Oscar 19 28 Feb 02:54:44 02:58:12 19° 298° (WNW) 03:01:41 437.125/150
RS-15 28 Feb 03:03:19 03:14:49 50° 250° (WSW) 03:25:51 29.354- 29.394
AO-85 28 Feb 03:10:40 03:15:09 57° 119° (ESE) 03:19:21 145.980
CUBESAT XI-V 28 Feb 03:24:41 03:29:01 40° 71° (ENE) 03:33:21 437.345
AO-7 28 Feb 03:32:24 03:40:42 66° 105° (ESE) 03:48:54 .
ITAMSAT 1 28 Feb 03:33:39 03:38:54 75° 286° (WNW) 03:44:05 435.822/435.867
M-CUBED/EXP-1 PRIME 28 Feb 03:55:04 03:58:07 37° 67° (ENE) 04:01:10 437.505
MOZHAYETS 4 28 Feb 03:56:03 03:58:58 16° 268° (W) 04:01:54
KKS-1 28 Feb 04:02:56 04:07:11 46° 260° (W) 04:11:28 437.445
BEESAT 3 28 Feb 04:11:02 04:12:57 13° 109° (ESE) 04:14:54 437.485
SO-50 28 Feb 04:21:03 04:22:40 12° 36° (NE) 04:24:16 436.795
STARS 28 Feb 04:28:16 04:32:33 55° 259° (W) 04:36:52 437.465
AO-85 28 Feb 04:52:49 04:55:50 18° 315° (NW) 04:58:45 145.980
BEESAT 2 28 Feb 04:55:25 04:57:59 17° 111° (ESE) 05:00:35 435.950
CUBESAT XI-V 28 Feb 05:03:06 05:06:31 20° 267° (W) 05:09:57 437.345
CUTE-I 28 Feb 05:05:13 05:08:21 15° 91° (E) 05:11:28 437.470
STRAND 1 28 Feb 05:05:42 05:08:32 15° 60° (ENE) 05:11:22 437.568
ITAMSAT 1 28 Feb 05:17:12 05:17:25 10° 304° (WNW) 05:17:38 435.822/435.867
AO-7 28 Feb 05:26:00 05:32:51 30° 304° (NW) 05:39:41 .
M-CUBED/EXP-1 PRIME 28 Feb 05:32:24 05:32:49 10° 263° (W) 05:33:14 437.505
DOVE 4 28 Feb 05:33:25 05:37:53 37° 97° (E) 05:42:35 437.250
KAITUO 1B 28 Feb 05:38:32 05:41:41 25° 96° (E) 05:44:47 145.475/437.950
BEESAT 3 28 Feb 05:46:18 05:50:06 51° 306° (NW) 05:53:59 437.485
XW-2F 28 Feb 05:48:13 05:51:49 39° 98° (E) 05:55:22 145.980 - 146.000
XW-2D 28 Feb 05:54:43 05:58:28 51° 100° (E) 06:02:10 145.860 - 145.880
ISS 28 Feb 05:56:00 05:58:43 24° 134° (SE) 06:01:27 437.550
SO-50 28 Feb 05:59:29 06:03:58 70° 56° (NE) 06:08:26 436.795
XW-2B 28 Feb 05:59:49 06:03:37 58° 100° (E) 06:07:20 145.730 - 145.750
XW-2C 28 Feb 06:08:34 06:12:25 77° 102° (ESE) 06:16:12 145.795 - 145.815
NUDT-PHONESAT 28 Feb 06:09:09 06:12:54 62° 101° (E) 06:16:34 437.300
Tancredo 1 28 Feb 06:13:20 06:16:22 37° 137° (SE) 06:19:24 437.200
CUTE 1.7 + AOD 2 28 Feb 06:28:38 06:30:44 14° 91° (E) 06:32:51 437.475
LilacSat-2 28 Feb 06:28:56 06:32:41 55° 286° (WNW) 06:36:25 437.200
BEESAT 2 28 Feb 06:31:40 06:35:25 42° 307° (NW) 06:39:15 435.950
XW-2A 28 Feb 06:32:53 06:35:27 19° 95° (E) 06:38:00 145.665 - 145.685
O/OREOS (USA 219) 28 Feb 06:37:16 06:40:27 18° 55° (NE) 06:43:39 437.305
HO-68 28 Feb 06:37:41 06:43:34 27° 94° (E) 06:49:24 435.675
STRAND 1 28 Feb 06:41:57 06:47:05 73° 258° (WSW) 06:52:15 437.568
CUTE-I 28 Feb 06:43:30 06:48:51 67° 288° (WNW) 06:54:10 437.470
DOVE 4 28 Feb 07:11:30 07:15:24 25° 292° (WNW) 07:19:26 437.250
KAITUO 1B 28 Feb 07:12:41 07:15:34 21° 291° (WNW) 07:18:26 145.475/437.950
SEEDS 28 Feb 07:18:28 07:22:14 32° 97° (E) 07:25:58 437.485
CUBEBUG 2 28 Feb 07:18:46 07:22:40 25° 94° (E) 07:26:31 437.445
XW-2F 28 Feb 07:23:31 07:25:37 14° 294° (WNW) 07:27:42 145.980 - 146.000
XW-2D 28 Feb 07:30:51 07:32:11 12° 296° (WNW) 07:33:32 145.860 - 145.880
ISS 28 Feb 07:31:55 07:35:03 40° 331° (NNW) 07:38:12 437.550
XW-2B 28 Feb 07:36:32 07:37:17 10° 297° (WNW) 07:38:02 145.730 - 145.750
SO-50 28 Feb 07:42:00 07:43:49 12° 252° (WSW) 07:45:39 436.795
UWE-3 28 Feb 07:49:10 07:53:19 32° 96° (E) 07:57:24 435.000/436.395/437.385
Tancredo 1 28 Feb 07:49:46 07:52:40 29° 334° (NNW) 07:55:35 437.200
PRISM 28 Feb 07:59:35 08:03:09 30° 70° (ENE) 08:06:44 437.425
CUTE 1.7 + AOD 2 28 Feb 08:02:47 08:06:51 49° 287° (WNW) 08:10:53 437.475
ZACube-1 28 Feb 08:03:04 08:06:53 26° 94° (E) 08:10:35 437.345
XW-2A 28 Feb 08:05:23 08:08:10 23° 290° (WNW) 08:10:55 145.665 - 145.685
O/OREOS (USA 219) 28 Feb 08:15:42 08:20:08 49° 253° (WSW) 08:24:34 437.305
HO-68 28 Feb 08:24:39 08:31:38 58° 292° (WNW) 08:38:35 435.675
AAUSAT CUBESAT 2 28 Feb 08:33:16 08:37:22 69° 284° (WNW) 08:41:26 437.432
FO-29 28 Feb 08:48:54 08:55:23 35° 63° (ENE) 09:02:15 435.910
AO-73 28 Feb 08:49:05 08:53:37 76° 102° (ESE) 08:58:02 145.935
Oscar 11 28 Feb 08:51:40 08:55:59 69° 102° (ESE) 09:00:15 .
SEEDS 28 Feb 08:54:36 08:57:43 21° 293° (WNW) 09:00:48 437.485
CUBEBUG 2 28 Feb 08:55:01 08:59:18 34° 290° (WNW) 09:03:30 437.445
TIGRISAT 28 Feb 09:07:55 09:12:23 67° 75° (ENE) 09:17:01 435.000
UNISAT 6 28 Feb 09:08:37 09:13:08 74° 75° (ENE) 09:17:46 437.425
ISS 28 Feb 09:10:13 09:12:11 15° 350° (N) 09:14:10 437.550
YUBILEINY 28 Feb 09:10:37 09:18:41 42° 87° (E) 09:26:43 435.215
AIST 2D 28 Feb 09:21:17 09:21:48 10° 65° (ENE) 09:22:18 435.315
UWE-3 28 Feb 09:25:47 09:29:37 26° 292° (WNW) 09:33:24 435.000/436.395/437.385
Tancredo 1 28 Feb 09:28:03 09:29:44 13° 354° (N) 09:31:25 437.200
EO-79 28 Feb 09:30:51 09:31:57 11° 62° (ENE) 09:33:04 145.935-145.965
PRISM 28 Feb 09:35:24 09:38:28 20° 265° (W) 09:41:32 437.425
DELFI C3 28 Feb 09:36:37 09:40:33 70° 101° (ESE) 09:44:27 145.870
ZACube-1 28 Feb 09:39:10 09:43:06 30° 291° (WNW) 09:46:59 437.345
NANOSAT C BR1 28 Feb 09:44:25 09:46:41 14° 64° (ENE) 09:48:58 145.865
POLYITAN 1 28 Feb 09:47:35 09:50:21 17° 65° (ENE) 09:53:07 437.675
QB50P2 28 Feb 09:50:23 09:53:26 19° 66° (ENE) 09:56:29 145.880/145.840
HO-68 28 Feb 10:15:57 10:17:51 11° 311° (NW) 10:19:45 435.675
AO-73 28 Feb 10:27:41 10:29:10 11° 299° (WNW) 10:30:39 145.935
Oscar 11 28 Feb 10:30:05 10:31:30 11° 298° (WNW) 10:32:57 .
FO-29 28 Feb 10:33:02 10:40:02 51° 262° (W) 10:47:37 435.910
ISS 28 Feb 10:47:40 10:49:40 15° 11° (N) 10:51:41 437.550
TIGRISAT 28 Feb 10:47:56 10:49:33 12° 271° (W) 10:51:11 435.000
DUCHIFAT 1 28 Feb 10:48:07 10:52:16 64° 75° (ENE) 10:56:28 145.980
UNISAT 6 28 Feb 10:49:28 10:50:22 11° 272° (W) 10:51:17 437.425
AIST 2D 28 Feb 10:51:05 10:54:33 51° 261° (W) 10:58:03 435.315
LO-87 28 Feb 10:52:59 10:56:35 69° 102° (ESE) 11:00:10 145.935 - 145.965
Oscar 19 28 Feb 10:56:33 10:57:34 11° 58° (ENE) 10:58:36 437.125/150
EO-79 28 Feb 11:02:54 11:07:06 72° 258° (WSW) 11:11:22 145.935-145.965
Tancredo 1 28 Feb 11:04:49 11:07:00 17° 15° (NNE) 11:09:10 437.200
YUBILEINY 28 Feb 11:07:09 11:15:24 43° 286° (WNW) 11:23:41 435.215
SPROUT 28 Feb 11:15:39 11:18:02 15° 91° (E) 11:20:26 437.525
NANOSAT C BR1 28 Feb 11:17:50 11:21:56 52° 260° (W) 11:26:07 145.865
ESTCUBE 1 28 Feb 11:21:07 11:25:35 65° 101° (E) 11:30:01 437.505/2401.250
POLYITAN 1 28 Feb 11:21:45 11:25:46 43° 261° (W) 11:29:52 437.675
QB50P2 28 Feb 11:25:01 11:28:57 36° 262° (W) 11:32:55 145.880/145.840
BUGSAT 1 28 Feb 11:31:24 11:35:26 67° 74° (ENE) 11:39:32 437.445
VELOX 1 28 Feb 11:32:05 11:35:51 27° 96° (E) 11:39:37 145.980
AO-85 28 Feb 11:42:06 11:45:51 42° 53° (NE) 11:49:37 145.980
Gurwin Techsat 1B 28 Feb 12:05:01 12:09:24 27° 66° (ENE) 12:13:47 435.225
ISS 28 Feb 12:23:37 12:26:47 42° 30° (NNE) 12:29:56 437.550
BEESAT 3 28 Feb 12:27:30 12:28:49 11° 39° (NE) 12:30:08 437.485
DUCHIFAT 1 28 Feb 12:27:33 12:28:21 10° 270° (W) 12:29:10 145.980
Oscar 19 28 Feb 12:30:53 12:36:02 81° 74° (ENE) 12:41:11 437.125/150
50 SAT 28 Feb 12:40:11 12:43:38 62° 285° (WNW) 12:47:03 437.505
Tancredo 1 28 Feb 12:40:33 12:43:46 62° 33° (NNE) 12:46:57 437.200
AO-7 28 Feb 12:41:53 12:47:35 21° 51° (NE) 12:53:17 .
DX 1 28 Feb 12:47:58 12:52:20 80° 101° (ESE) 12:56:42 434.975-435.025
SPROUT 28 Feb 12:50:03 12:54:13 48° 287° (WNW) 12:58:21 437.525
UKube-1 28 Feb 12:53:05 12:57:22 64° 101° (E) 13:01:39 .
ESTCUBE 1 28 Feb 12:59:49 13:01:49 13° 298° (WNW) 13:03:51 437.505/2401.250
VELOX 1 28 Feb 13:08:29 13:12:14 28° 292° (WNW) 13:16:00 145.980
BEESAT 2 28 Feb 13:12:52 13:14:57 14° 41° (NE) 13:17:02 435.950
ITAMSAT 1 28 Feb 13:13:42 13:17:35 22° 63° (ENE) 13:21:30 435.822/435.867
AO-85 28 Feb 13:23:29 13:25:53 16° 249° (WSW) 13:28:20 145.980
Gurwin Techsat 1B 28 Feb 13:44:11 13:49:08 39° 262° (W) 13:54:07 435.225
ISS 28 Feb 14:00:27 14:03:05 22° 227° (SW) 14:05:42 437.550
BEESAT 3 28 Feb 14:03:02 14:07:04 84° 58° (ENE) 14:11:04 437.485
Oscar 19 28 Feb 14:14:14 14:15:56 11° 271° (W) 14:17:38 437.125/150
MOZHAYETS 4 28 Feb 14:14:29 14:15:58 11° 89° (E) 14:17:27
Tancredo 1 28 Feb 14:17:52 14:19:40 14° 230° (SW) 14:21:28 437.200
ITUPSAT 1 28 Feb 14:18:30 14:22:54 35° 97° (E) 14:27:15 437.325
BEESAT 28 Feb 14:22:36 14:27:06 39° 98° (E) 14:31:33 436.000
DX 1 28 Feb 14:27:08 14:27:52 10° 300° (WNW) 14:28:36 434.975-435.025
AO-7 28 Feb 14:30:50 14:39:12 86° 72° (ENE) 14:47:36 .
UKube-1 28 Feb 14:31:03 14:32:52 12° 298° (WNW) 14:34:40 .
BEESAT 2 28 Feb 14:49:10 14:53:14 76° 239° (WSW) 14:57:15 435.950
ITAMSAT 1 28 Feb 14:51:40 14:56:41 49° 260° (W) 15:01:46 435.822/435.867
PCSat 28 Feb 15:05:00 15:10:19 63° 115° (ESE) 15:15:42 145.827
RS-15 28 Feb 15:14:45 15:24:32 31° 103° (ESE) 15:34:34 29.354- 29.394
MOZHAYETS 4 28 Feb 15:49:01 15:53:36 68° 285° (WNW) 15:58:07
KKS-1 28 Feb 15:53:52 15:57:54 32° 97° (E) 16:01:55 437.445
ITUPSAT 1 28 Feb 15:56:39 16:00:32 25° 294° (WNW) 16:04:24 437.325
NO-84 28 Feb 15:58:59 16:02:06 67° 321° (NW) 16:05:30 435.350 FM
BEESAT 28 Feb 16:00:56 16:04:37 23° 295° (WNW) 16:08:17 436.000
